SR9NCI Weather Reports


Display with metric or nautical units.
time (UTC)temp
F
wind
direction
speed
MPH
gust
MPH
rain 1hr
in
rain 24hr
in
rain mn
in
humidity
%
barometer
mb
20260508004513 53 308 4.0 8.0 0.00 0.00 0.00
20260508004110 53 321 3.0 6.0 0.00 0.00 0.00
20260508003708 53 303 3.0 6.0 0.00 0.00 0.00
20260508003300 53 315 3.0 6.0 0.00 0.00 0.00
20260508002858 53 296 4.0 6.0 0.00 0.00 0.00
20260508002456 53 308 3.0 5.0 0.00 0.00 0.00
20260508002055 53 292 3.0 4.0 0.00 0.00 0.00
20260508001653 53 292 3.0 5.0 0.00 0.00 0.00
20260508001252 54 292 0.0 2.0 0.00 0.00 0.00
20260508000850 54 292 1.0 4.0 0.00 0.00 0.00
20260508000450 53 292 3.0 5.0 0.00 0.00 0.00
20260508000047 54 311 2.0 4.0 0.00 0.00 0.00
20260507235646 53 293 3.0 5.0 0.00 0.00 0.00
20260507235238 53 307 3.0 7.0 0.00 0.00 0.00
20260507234835 54 297 3.0 8.0 0.00 0.00 0.00
20260507234434 54 296 5.0 7.0 0.00 0.00 0.00
20260507234033 54 297 5.0 9.0 0.00 0.00 0.00
20260507233631 54 293 5.0 10.0 0.00 0.00 0.00
20260507233229 54 292 4.0 8.0 0.00 0.00 0.00
20260507232827 54 292 4.0 7.0 0.00 0.00 0.00
20260507232426 54 292 6.0 8.0 0.00 0.00 0.00
20260507232025 54 292 4.0 6.0 0.00 0.00 0.00
20260507231622 55 284 4.0 7.0 0.00 0.00 0.00
20260507231214 54 292 4.0 6.0 0.00 0.00 0.00
20260507230812 55 304 3.0 6.0 0.00 0.00 0.00
20260507230411 55 338 2.0 4.0 0.00 0.00 0.00
20260507230010 55 338 3.0 4.0 0.00 0.00 0.00
20260507225607 55 338 0.0 2.0 0.00 0.00 0.00
20260507225206 55 338 0.0 0.0 0.00 0.00 0.00
20260507224804 55 338 1.0 2.0 0.00 0.00 0.00
20260507224403 55 338 2.0 3.0 0.00 0.00 0.00
20260507224001 55 338 2.0 4.0 0.00 0.00 0.00
20260507223559 54 338 3.0 5.0 0.00 0.00 0.00
20260507223151 55 315 2.0 4.0 0.00 0.00 0.00
20260507222750 55 315 2.0 5.0 0.00 0.00 0.00
20260507222347 55 335 3.0 5.0 0.00 0.00 0.00
20260507221946 55 316 4.0 7.0 0.00 0.00 0.00
20260507221544 55 329 4.0 6.0 0.00 0.00 0.00
20260507221143 55 357 2.0 6.0 0.00 0.00 0.00
20260507220740 55 0 2.0 4.0 0.00 0.00 0.00
20260507220339 55 357 2.0 4.0 0.00 0.00 0.00
20260507215938 55 326 4.0 7.0 0.00 0.00 0.00
20260507215536 55 321 4.0 8.0 0.00 0.00 0.00
20260507215127 55 315 4.0 7.0 0.00 0.00 0.00
20260507214724 55 292 3.0 5.0 0.00 0.00 0.00
20260507214323 55 292 3.0 5.0 0.00 0.00 0.00
20260507213922 55 292 2.0 5.0 0.00 0.00 0.00
20260507213521 55 289 4.0 7.0 0.00 0.00 0.00
20260507213118 56 292 4.0 5.0 0.00 0.00 0.00
20260507212717 56 289 4.0 5.0 0.00 0.00 0.00
20260507212316 57 290 4.0 6.0 0.00 0.00 0.00
20260507211914 57 291 5.0 9.0 0.00 0.00 0.00
20260507211511 57 290 5.0 7.0 0.00 0.00 0.00
20260507211103 58 292 3.0 6.0 0.00 0.00 0.00
20260507210702 58 292 3.0 6.0 0.00 0.00 0.00
20260507210301 58 292 2.0 4.0 0.00 0.00 0.00
20260507205858 58 299 3.0 6.0 0.00 0.00 0.00
20260507205457 58 299 3.0 6.0 0.00 0.00 0.00
20260507205056 58 315 2.0 4.0 0.00 0.00 0.00
20260507204654 59 307 3.0 4.0 0.00 0.00 0.00
20260507204253 59 299 2.0 6.0 0.00 0.00 0.00
20260507203851 59 316 3.0 4.0 0.00 0.00 0.00
20260507203449 59 292 2.0 2.0 0.00 0.00 0.00
20260507203041 59 309 3.0 5.0 0.00 0.00 0.00
20260507202639 59 325 2.0 5.0 0.00 0.00 0.00
20260507202237 59 315 3.0 5.0 0.00 0.00 0.00
20260507201836 59 315 3.0 6.0 0.00 0.00 0.00
20260507201434 59 292 1.0 4.0 0.00 0.00 0.00
20260507201032 59 307 2.0 5.0 0.00 0.00 0.00
20260507200629 60 338 1.0 3.0 0.00 0.00 0.00
20260507200228 59 338 0.0 2.0 0.00 0.00 0.00
20260507195827 59 338 0.0 0.0 0.00 0.00 0.00
20260507195426 59 338 0.0 2.0 0.00 0.00 0.00
20260507195016 60 338 0.0 2.0 0.00 0.00 0.00
20260507194615 60 338 0.0 0.0 0.00 0.00 0.00
20260507194214 59 338 0.0 2.0 0.00 0.00 0.00
20260507193813 58 343 2.0 5.0 0.00 0.00 0.00
20260507193411 59 338 2.0 4.0 0.00 0.00 0.00
20260507193008 59 340 3.0 4.0 0.00 0.00 0.00
20260507192607 59 345 3.0 4.0 0.00 0.00 0.00
20260507192206 59 316 3.0 6.0 0.00 0.00 0.00
20260507191805 59 351 2.0 5.0 0.00 0.00 0.00
20260507191402 59 342 3.0 6.0 0.00 0.00 0.00
20260507190954 59 345 3.0 4.0 0.00 0.00 0.00
20260507190552 59 304 2.0 8.0 0.00 0.00 0.00
20260507190151 58 324 4.0 7.0 0.00 0.00 0.00
20260507185749 60 328 4.0 8.0 0.00 0.00 0.00
20260507185347 61 306 6.0 10.0 0.00 0.00 0.00
20260507184946 61 318 6.0 10.0 0.00 0.00 0.00
20260507184544 62 297 4.0 10.0 0.00 0.00 0.00
20260507184142 62 279 4.0 6.0 0.00 0.00 0.00
20260507183741 62 275 4.0 9.0 0.00 0.00 0.00
20260507183339 61 296 6.0 10.0 0.00 0.00 0.00
20260507182931 63 136 4.0 6.0 0.00 0.00 0.00
20260507182529 64 138 4.0 6.0 0.00 0.00 0.00
20260507182127 64 145 4.0 7.0 0.00 0.00 0.00
20260507181726 64 144 3.0 5.0 0.00 0.00 0.00
20260507181324 64 144 4.0 7.0 0.00 0.00 0.00
20260507180923 64 157 5.0 6.0 0.00 0.00 0.00
20260507180521 64 159 7.0 10.0 0.00 0.00 0.00
20260507180119 64 153 5.0 8.0 0.00 0.00 0.00
20260507175719 65 176 6.0 8.0 0.00 0.00 0.00
20260507175317 65 157 5.0 7.0 0.00 0.00 0.00
20260507174908 66 135 2.0 4.0 0.00 0.00 0.00
20260507174506 66 135 1.0 4.0 0.00 0.00 0.00
20260507174105 64 135 0.0 1.0 0.00 0.00 0.00
20260507173704 65 135 2.0 3.0 0.00 0.00 0.00
20260507173301 65 139 5.0 8.0 0.00 0.00 0.00
20260507172900 66 135 4.0 8.0 0.00 0.00 0.00
20260507172458 66 128 6.0 8.0 0.00 0.00 0.00
20260507172057 67 132 5.0 7.0 0.00 0.00 0.00
20260507171656 66 121 4.0 6.0 0.00 0.00 0.00
20260507171253 67 110 4.0 6.0 0.00 0.00 0.00
20260507170845 67 135 5.0 9.0 0.00 0.00 0.00
20260507170443 66 136 5.0 10.0 0.00 0.00 0.00
20260507165238 65 140 6.0 10.0 0.00 0.00 0.00
20260507164837 65 138 6.0 8.0 0.00 0.00 0.00
20260507164436 65 136 6.0 9.0 0.00 0.00 0.00
20260507164033 65 144 7.0 10.0 0.00 0.00 0.00
20260507163632 65 145 7.0 12.0 0.00 0.00 0.00
20260507163231 65 146 8.0 13.0 0.00 0.00 0.00
20260507162823 65 145 7.0 11.0 0.00 0.00 0.00
20260507162420 66 147 7.0 11.0 0.00 0.00 0.00
20260507162019 66 141 5.0 8.0 0.00 0.00 0.00
20260507161618 65 135 4.0 6.0 0.00 0.00 0.00
20260507161216 65 136 6.0 9.0 0.00 0.00 0.00
20260507160815 66 139 5.0 8.0 0.00 0.00 0.00
20260507160412 66 138 6.0 9.0 0.00 0.00 0.00
20260507155610 66 136 6.0 10.0 0.00 0.00 0.00
20260507155208 66 135 5.0 8.0 0.00 0.00 0.00
20260507154759 67 126 7.0 10.0 0.00 0.00 0.00
20260507154357 68 139 4.0 7.0 0.00 0.00 0.00
20260507153956 69 175 4.0 6.0 0.00 0.00 0.00
20260507153555 69 202 4.0 6.0 0.00 0.00 0.00
20260507153152 69 202 4.0 6.0 0.00 0.00 0.00
20260507152751 68 202 5.0 8.0 0.00 0.00 0.00
20260507152349 68 202 6.0 10.0 0.00 0.00 0.00
20260507151948 69 202 5.0 8.0 0.00 0.00 0.00
20260507151546 68 211 6.0 10.0 0.00 0.00 0.00
20260507151144 68 222 5.0 8.0 0.00 0.00 0.00
20260507150736 68 218 5.0 11.0 0.00 0.00 0.00
20260507150335 68 220 5.0 8.0 0.00 0.00 0.00
20260507145934 68 216 6.0 11.0 0.00 0.00 0.00
20260507145532 69 213 5.0 9.0 0.00 0.00 0.00
20260507145130 69 230 3.0 7.0 0.00 0.00 0.00
20260507144729 69 221 5.0 9.0 0.00 0.00 0.00
20260507144327 69 225 5.0 8.0 0.00 0.00 0.00
20260507143925 69 234 5.0 9.0 0.00 0.00 0.00
20260507143524 69 233 6.0 9.0 0.00 0.00 0.00
20260507143122 69 230 4.0 7.0 0.00 0.00 0.00
20260507142714 69 240 4.0 8.0 0.00 0.00 0.00
20260507142311 69 228 4.0 9.0 0.00 0.00 0.00
20260507141509 69 224 6.0 10.0 0.00 0.00 0.00
20260507141107 69 215 6.0 10.0 0.00 0.00 0.00
20260507140705 69 202 4.0 7.0 0.00 0.00 0.00
20260507140303 70 221 3.0 6.0 0.00 0.00 0.00
20260507135902 69 225 3.0 6.0 0.00 0.00 0.00
20260507135059 69 225 3.0 6.0 0.00 0.00 0.00
20260507134650 68 219 3.0 8.0 0.00 0.00 0.00
20260507134248 69 212 6.0 10.0 0.00 0.00 0.00
20260507133847 68 224 5.0 8.0 0.00 0.00 0.00
20260507133446 68 242 8.0 13.0 0.00 0.00 0.00
20260507133043 69 218 10.0 14.0 0.00 0.00 0.00
20260507132642 70 222 6.0 9.0 0.00 0.00 0.00
20260507132240 70 241 6.0 11.0 0.00 0.00 0.00
20260507131840 70 245 7.0 9.0 0.00 0.00 0.00
20260507131437 70 255 5.0 9.0 0.00 0.00 0.00
20260507131035 71 246 6.0 10.0 0.00 0.00 0.00
20260507130627 71 237 8.0 11.0 0.00 0.00 0.00
20260507130226 71 241 5.0 7.0 0.00 0.00 0.00
20260507125824 70 253 6.0 9.0 0.00 0.00 0.00
20260507125422 71 226 6.0 10.0 0.00 0.00 0.00
20260507125021 71 256 6.0 10.0 0.00 0.00 0.00
20260507124620 70 244 8.0 10.0 0.00 0.00 0.00
20260507124218 71 222 5.0 9.0 0.00 0.00 0.00
20260507123816 70 223 5.0 7.0 0.00 0.00 0.00
20260507123415 70 262 7.0 13.0 0.00 0.00 0.00
20260507123013 70 277 9.0 13.0 0.00 0.00 0.00
20260507122605 70 262 7.0 11.0 0.00 0.00 0.00
20260507122202 71 269 8.0 12.0 0.00 0.00 0.00
20260507121801 71 270 8.0 12.0 0.00 0.00 0.00
20260507121400 71 261 6.0 10.0 0.00 0.00 0.00
20260507120958 71 271 6.0 9.0 0.00 0.00 0.00
20260507120556 70 288 8.0 11.0 0.00 0.00 0.00
20260507120154 71 272 7.0 10.0 0.00 0.00 0.00
20260507115753 71 273 8.0 14.0 0.00 0.00 0.00
20260507115352 71 258 6.0 11.0 0.00 0.00 0.00
20260507114949 71 228 7.0 12.0 0.00 0.00 0.00
20260507114541 71 240 8.0 13.0 0.00 0.00 0.00
20260507114139 71 232 6.0 10.0 0.00 0.00 0.00
20260507113738 71 263 4.0 8.0 0.00 0.00 0.00
20260507113337 70 246 6.0 10.0 0.00 0.00 0.00
20260507112934 70 228 9.0 16.0 0.00 0.00 0.00
20260507112533 71 247 7.0 11.0 0.00 0.00 0.00
20260507112131 71 243 7.0 11.0 0.00 0.00 0.00
20260507111730 70 260 8.0 13.0 0.00 0.00 0.00
20260507111328 70 244 10.0 13.0 0.00 0.00 0.00
20260507110926 72 259 4.0 7.0 0.00 0.00 0.00
20260507110518 72 249 5.0 9.0 0.00 0.00 0.00
20260507110117 71 271 6.0 9.0 0.00 0.00 0.00
20260507105313 71 246 8.0 11.0 0.00 0.00 0.00
20260507104912 71 271 10.0 12.0 0.00 0.00 0.00
20260507104511 72 255 7.0 14.0 0.00 0.00 0.00
20260507104108 71 259 8.0 11.0 0.00 0.00 0.00
20260507103707 71 281 8.0 13.0 0.00 0.00 0.00
20260507103306 71 254 8.0 11.0 0.00 0.00 0.00
20260507102904 71 242 9.0 14.0 0.00 0.00 0.00
20260507102456 72 261 6.0 8.0 0.00 0.00 0.00
20260507102053 71 272 6.0 10.0 0.00 0.00 0.00
20260507101652 70 250 8.0 12.0 0.00 0.00 0.00
20260507101251 70 263 6.0 10.0 0.00 0.00 0.00
20260507100849 70 260 8.0 15.0 0.00 0.00 0.00
20260507100447 69 268 6.0 9.0 0.00 0.00 0.00
20260507100045 70 258 7.0 12.0 0.00 0.00 0.00
20260507095644 69 291 8.0 10.0 0.00 0.00 0.00
20260507095243 69 265 5.0 9.0 0.00 0.00 0.00
20260507094840 69 283 10.0 14.0 0.00 0.00 0.00
20260507094432 69 260 8.0 12.0 0.00 0.00 0.00
20260507094030 69 254 9.0 12.0 0.00 0.00 0.00
20260507093629 69 281 6.0 10.0 0.00 0.00 0.00
20260507093227 69 265 7.0 10.0 0.00 0.00 0.00
20260507092825 69 263 8.0 11.0 0.00 0.00 0.00
20260507092431 69 249 7.0 10.0 0.00 0.00 0.00
20260507092424 69 249 7.0 10.0 0.00 0.00 0.00
20260507092023 70 252 5.0 7.0 0.00 0.00 0.00
20260507091622 70 248 5.0 8.0 0.00 0.00 0.00
20260507091219 69 260 8.0 10.0 0.00 0.00 0.00
20260507090818 70 262 6.0 12.0 0.00 0.00 0.00
20260507090410 70 256 4.0 8.0 0.00 0.00 0.00
20260507090008 70 254 6.0 9.0 0.00 0.00 0.00
20260507085606 69 236 9.0 12.0 0.00 0.00 0.00
20260507085205 69 248 7.0 10.0 0.00 0.00 0.00
20260507084803 69 236 8.0 11.0 0.00 0.00 0.00
20260507084402 69 261 7.0 12.0 0.00 0.00 0.00
20260507083959 69 251 4.0 6.0 0.00 0.00 0.00
20260507083558 68 270 8.0 12.0 0.00 0.00 0.00
20260507083157 69 241 5.0 10.0 0.00 0.00 0.00
20260507082755 69 214 9.0 16.0 0.00 0.00 0.00
20260507082346 68 224 8.0 12.0 0.00 0.00 0.00
20260507081944 68 229 9.0 13.0 0.00 0.00 0.00
20260507081543 69 235 7.0 12.0 0.00 0.00 0.00
20260507081142 68 233 5.0 10.0 0.00 0.00 0.00
20260507080740 68 240 10.0 14.0 0.00 0.00 0.00
20260507080338 68 242 7.0 11.0 0.00 0.00 0.00
20260507075936 68 264 4.0 9.0 0.00 0.00 0.00
20260507075535 67 282 5.0 9.0 0.00 0.00 0.00
20260507075135 68 266 7.0 9.0 0.00 0.00 0.00
20260507074731 68 275 3.0 6.0 0.00 0.00 0.00
20260507074324 68 277 5.0 10.0 0.00 0.00 0.00
20260507073922 66 276 5.0 7.0 0.00 0.00 0.00
20260507073521 66 252 4.0 9.0 0.00 0.00 0.00
20260507073119 66 260 9.0 12.0 0.00 0.00 0.00
20260507072717 65 285 7.0 10.0 0.00 0.00 0.00
20260507072316 66 269 6.0 10.0 0.00 0.00 0.00
20260507071914 66 256 8.0 11.0 0.00 0.00 0.00
20260507071512 66 263 8.0 10.0 0.00 0.00 0.00
20260507071111 65 264 9.0 14.0 0.00 0.00 0.00
20260507070709 66 267 11.0 17.0 0.00 0.00 0.00
20260507070301 69 235 5.0 9.0 0.00 0.00 0.00
20260507065859 67 250 5.0 8.0 0.00 0.00 0.00
20260507065457 66 255 7.0 10.0 0.00 0.00 0.00
20260507065056 67 256 6.0 11.0 0.00 0.00 0.00
20260507064654 66 253 6.0 8.0 0.00 0.00 0.00
20260507064253 66 262 7.0 10.0 0.00 0.00 0.00
20260507063850 66 268 6.0 9.0 0.00 0.00 0.00
20260507063449 67 248 4.0 7.0 0.00 0.00 0.00
20260507063048 66 249 3.0 7.0 0.00 0.00 0.00
20260507062646 66 257 6.0 9.0 0.00 0.00 0.00
20260507062237 66 269 5.0 7.0 0.00 0.00 0.00
20260507061835 66 270 2.0 4.0 0.00 0.00 0.00
20260507061434 66 273 4.0 6.0 0.00 0.00 0.00
20260507061033 67 231 3.0 6.0 0.00 0.00 0.00
20260507060630 66 262 5.0 8.0 0.00 0.00 0.00
20260507060229 66 244 3.0 6.0 0.00 0.00 0.00
20260507055827 67 244 4.0 5.0 0.00 0.00 0.00
20260507055426 67 248 2.0 5.0 0.00 0.00 0.00
20260507055025 67 241 4.0 7.0 0.00 0.00 0.00
20260507054622 66 248 3.0 5.0 0.00 0.00 0.00
20260507054214 67 248 2.0 5.0 0.00 0.00 0.00
20260507053812 66 225 3.0 5.0 0.00 0.00 0.00
20260507053410 65 225 2.0 5.0 0.00 0.00 0.00
20260507053008 66 225 2.0 4.0 0.00 0.00 0.00
20260507052606 66 225 3.0 5.0 0.00 0.00 0.00
20260507052205 66 225 3.0 5.0 0.00 0.00 0.00
20260507051803 66 225 3.0 6.0 0.00 0.00 0.00
20260507051401 65 225 3.0 5.0 0.00 0.00 0.00
20260507051000 66 165 2.0 4.0 0.00 0.00 0.00
20260507050558 65 157 3.0 3.0 0.00 0.00 0.00
20260507050150 66 157 2.0 4.0 0.00 0.00 0.00
20260507045747 67 157 1.0 4.0 0.00 0.00 0.00
20260507045346 67 157 3.0 4.0 0.00 0.00 0.00
20260507044945 67 157 2.0 3.0 0.00 0.00 0.00
20260507044543 67 157 2.0 3.0 0.00 0.00 0.00
20260507044142 67 157 3.0 5.0 0.00 0.00 0.00
20260507043739 66 157 2.0 4.0 0.00 0.00 0.00
20260507043338 65 154 3.0 7.0 0.00 0.00 0.00
20260507042937 64 135 3.0 4.0 0.00 0.00 0.00
20260507042535 64 135 3.0 4.0 0.00 0.00 0.00
20260507042126 64 146 6.0 9.0 0.00 0.00 0.00
20260507041724 64 135 2.0 5.0 0.00 0.00 0.00
20260507041323 63 135 3.0 4.0 0.00 0.00 0.00
20260507040922 63 202 4.0 6.0 0.00 0.00 0.00
20260507040519 61 67 1.0 2.0 0.00 0.00 0.00
20260507040118 61 67 0.0 1.0 0.00 0.00 0.00
20260507035716 61 67 0.0 0.0 0.00 0.00 0.00
20260507035315 61 67 2.0 4.0 0.00 0.00 0.00
20260507034913 61 21 5.0 7.0 0.00 0.00 0.00
20260507034511 61 7 4.0 5.0 0.00 0.00 0.00
20260507034103 61 45 4.0 6.0 0.00 0.00 0.00
20260507033701 61 45 4.0 6.0 0.00 0.00 0.00
20260507033300 61 29 7.0 8.0 0.00 0.00 0.00
20260507032858 61 45 2.0 4.0 0.00 0.00 0.00
20260507032456 61 41 3.0 7.0 0.00 0.00 0.00
20260507032055 61 14 5.0 8.0 0.00 0.00 0.00
20260507031653 61 0 5.0 7.0 0.00 0.00 0.00
20260507031251 61 135 2.0 4.0 0.00 0.00 0.00
20260507030850 61 135 3.0 4.0 0.00 0.00 0.00
20260507030448 62 135 1.0 3.0 0.00 0.00 0.00
20260507030040 62 135 0.0 0.0 0.00 0.00 0.00
20260507025638 62 135 0.0 1.0 0.00 0.00 0.00
20260507025236 63 135 2.0 4.0 0.00 0.00 0.00
20260507024835 63 135 3.0 6.0 0.00 0.00 0.00
20260507024434 64 145 3.0 4.0 0.00 0.00 0.00
20260507024031 64 157 1.0 4.0 0.00 0.00 0.00
20260507023630 65 157 2.0 4.0 0.00 0.00 0.00
20260507023228 65 157 4.0 6.0 0.00 0.00 0.00
20260507022828 65 157 3.0 6.0 0.00 0.00 0.00
20260507022425 65 157 3.0 6.0 0.00 0.00 0.00
20260507022016 65 151 5.0 9.0 0.00 0.00 0.00
20260507021614 65 137 3.0 7.0 0.00 0.00 0.00
20260507021213 65 151 4.0 8.0 0.00 0.00 0.00
20260507020812 65 136 4.0 7.0 0.00 0.00 0.00
20260507020409 65 157 3.0 7.0 0.00 0.00 0.00
20260507020009 65 153 3.0 6.0 0.00 0.00 0.00
20260507015606 65 152 4.0 8.0 0.00 0.00 0.00
20260507015205 65 157 5.0 8.0 0.00 0.00 0.00
20260507014803 65 157 4.0 9.0 0.00 0.00 0.00
20260507014401 65 158 6.0 9.0 0.00 0.00 0.00
20260507013954 65 167 9.0 12.0 0.00 0.00 0.00
20260507013552 66 171 10.0 14.0 0.00 0.00 0.00
20260507013150 66 172 9.0 13.0 0.00 0.00 0.00
20260507012749 66 175 7.0 10.0 0.00 0.00 0.00
20260507012347 66 186 14.0 19.0 0.00 0.00 0.00
20260507011946 66 182 14.0 20.0 0.00 0.00 0.00
20260507011544 66 176 11.0 15.0 0.00 0.00 0.00
20260507011142 66 164 10.0 12.0 0.00 0.00 0.00
20260507010741 66 182 11.0 15.0 0.00 0.00 0.00
20260507010339 66 182 12.0 16.0 0.00 0.00 0.00
20260507005931 66 199 12.0 17.0 0.00 0.00 0.00
20260507005528 66 200 14.0 22.0 0.00 0.00 0.00
20260507005127 66 197 8.0 11.0 0.00 0.00 0.00
20260507004725 66 203 7.0 11.0 0.00 0.00 0.00